Location: Spring Creek
(38.2870°N, 100.2160°W)
Time: 12:02:50
(UTC+00:00)

GP-B - Pass Details

Date: 08 May 2021
Orbit: 631 x 635 km, 89.8° (Epoch: 22 June)

Event Time Altitude Azimuth Distance (km) Brightness Sun altitude
Rises 09:28:29 0° 3° (N) 2,938 7.3 -21.5°
Reaches altitude 10° 09:30:43 10° 4° (N) 2,025 6.4 -21.2°
Maximum altitude 09:35:11 82° 93° (E) 645 3.1 -20.6°
Enters shadow 09:36:54 37° 176° (S) 983 3.7 -20.4°
